TimeCEST,TemperatureF,Dew PointF,Humidity,Sea Level PressureIn,VisibilityMPH,Wind Direction,Wind SpeedMPH,Gust SpeedMPH,PrecipitationIn,Events,Conditions,WindDirDegrees,DateUTC
12:55 AM,53.6,44.6,72,30.30,-9999.0,WSW,33.4,-,N/A,,Clear,250,2013-06-15 22:55:00
1:55 AM,53.6,44.6,72,30.30,-9999.0,West,29.9,-,N/A,,Clear,260,2013-06-15 23:55:00
2:00 AM,53,45,67,,31,West,29.9,,,,,260,2013-06-16 00:00:00
2:55 AM,51.8,44.6,76,30.30,-9999.0,WSW,33.4,-,N/A,,Clear,250,2013-06-16 00:55:00
3:55 AM,51.8,44.6,76,30.30,-9999.0,West,32.2,-,N/A,,Clear,260,2013-06-16 01:55:00
4:55 AM,51.8,46.4,82,30.30,-9999.0,West,27.6,-,N/A,,Clear,260,2013-06-16 02:55:00
5:55 AM,51.8,46.4,82,30.30,-9999.0,WSW,35.7,-,N/A,,Clear,250,2013-06-16 03:55:00
6:55 AM,51.8,42.8,71,30.30,-9999.0,WSW,25.3,-,N/A,,Clear,250,2013-06-16 04:55:00
7:55 AM,51.8,44.6,76,30.30,-9999.0,West,23.0,-,N/A,,Clear,260,2013-06-16 05:55:00
8:00 AM,53,44,62,,31,West,23.0,,,,,260,2013-06-16 06:00:00
8:55 AM,53.6,44.6,72,30.33,-9999.0,West,18.4,-,N/A,,Clear,260,2013-06-16 06:55:00
9:55 AM,55.4,44.6,67,30.33,-9999.0,West,9.2,-,N/A,,Clear,260,2013-06-16 07:55:00
10:55 AM,55.4,46.4,72,30.33,-9999.0,West,9.2,-,N/A,,Clear,260,2013-06-16 08:55:00
11:55 AM,57.2,46.4,67,30.36,-9999.0,West,9.2,-,N/A,,Clear,260,2013-06-16 09:55:00
12:55 PM,59.0,48.2,67,30.36,6.2,West,9.2,-,N/A,,Partly Cloudy,260,2013-06-16 10:55:00
1:55 PM,60.8,50.0,68,30.36,6.2,WSW,5.8,-,N/A,,Scattered Clouds,250,2013-06-16 11:55:00
2:00 PM,62,49,53,,31,WSW,5.8,,,,Partly Cloudy,250,2013-06-16 12:00:00
2:55 PM,62.6,48.2,59,30.36,6.2,SSW,6.9,-,N/A,,Scattered Clouds,200,2013-06-16 12:55:00
3:55 PM,64.4,50.0,59,30.36,6.2,SW,6.9,-,N/A,,Scattered Clouds,220,2013-06-16 13:55:00
4:55 PM,64.4,51.8,64,30.36,6.2,Calm,Calm,-,N/A,,Partly Cloudy,0,2013-06-16 14:55:00
5:55 PM,64.4,51.8,64,30.33,6.2,SSW,4.6,-,N/A,,Partly Cloudy,200,2013-06-16 15:55:00
6:55 PM,64.4,53.6,68,30.33,6.2,SW,5.8,-,N/A,,Partly Cloudy,230,2013-06-16 16:55:00
7:55 PM,60.8,50.0,68,30.33,-9999.0,Calm,Calm,-,N/A,,Clear,0,2013-06-16 17:55:00
8:00 PM,60,49,59,,31,Calm,Calm,,,,,,2013-06-16 18:00:00
8:55 PM,59.0,48.2,67,30.33,-9999.0,West,18.4,-,N/A,,Clear,270,2013-06-16 18:55:00
9:55 PM,59.0,46.4,63,30.33,-9999.0,West,15.0,-,N/A,,Clear,260,2013-06-16 19:55:00
10:55 PM,57.2,41.0,55,30.33,-9999.0,WNW,32.2,-,N/A,,Clear,300,2013-06-16 20:55:00
11:55 PM,57.2,42.8,59,30.33,-9999.0,WNW,25.3,-,N/A,,Clear,300,2013-06-16 21:55:00